Location: El Portezuelo
(28.4984°N, 16.3589°W)
Time: 10:15:36
(UTC+00:00)

ALOS - Pass Details

Date: 20 January 2020
Orbit: 683 x 686 km, 97.8° (Epoch: 19 February)

Event Time Altitude Azimuth Distance (km) Brightness Sun altitude
Rises 05:48:33 0° 20° (NNE) 3,047 5.7 -28.2°
Reaches altitude 10° 05:50:53 10° 26° (NNE) 2,128 5.0 -27.7°
Maximum altitude 05:55:20 45° 99° (E) 927 3.3 -26.7°
Drops below altitude 10° 05:59:46 10° 172° (S) 2,117 5.0 -25.8°
Sets 06:02:05 0° 179° (S) 3,028 5.7 -25.3°
